User: anonymous   Login
Location: Unspecified
(0.0000°N, 0.0000°E)
Time: 08:20:36
(UTC+00:00)
Language:

HEATHSAT - Orbit

View from above orbital plane
View from above orbital plane
View from above satellite
View from above satellite

Ground track
Ground track

The orbit data is extracted from the following two-line orbital elements,

1 22827U 93061E   19345.77726737 +.00000013 +00000-0 +22669-4 0  9991
2 22827 098.9002 345.6303 0009401 151.1400 022.2968 14.31313520367616
Epoch (UTC): 11 December 2019 18:39:15
Eccentricity: 0.0009401
inclination: 98.9002°
perigee height: 780 km
apogee height: 794 km
right ascension of ascending node: 345.6303°
argument of perigee: 151.1400°
revolutions per day: 14.31313520
mean anomaly at epoch: 22.2968°
orbit number at epoch: 36761

The dashed part of the orbit path shows where the satellite is in the earth's shadow,  

DLR